Time,TemperatureF,DewpointF,PressureIn,WindDirection,WindDirectionDegrees,WindSpeedMPH,WindSpeedGustMPH,Humidity,HourlyPrecipIn,Conditions,Clouds,dailyrainin,SoftwareType,DateUTC
2013-03-05 07:21:00,38.7,30.4,29.69,North,6,0.0,0.0,72,0.00,,OVC,0.00,VWS V14.00,2013-03-05 15:21:00,
2013-03-05 07:26:00,38.7,30.4,29.69,NW,314,4.0,4.0,72,0.00,,OVC,0.00,VWS V14.00,2013-03-05 15:26:00,
2013-03-05 07:31:00,38.3,30.1,29.69,North,0,2.7,4.0,72,0.00,,OVC,0.00,VWS V14.00,2013-03-05 15:31:00,
2013-03-05 07:36:00,38.3,30.4,29.69,South,191,0.0,3.1,73,0.00,,OVC,0.00,VWS V14.00,2013-03-05 15:36:00,
2013-03-05 07:41:00,38.5,30.6,29.69,North,2,0.0,0.0,73,0.00,,OVC,0.00,VWS V14.00,2013-03-05 15:41:00,
2013-03-05 07:46:00,38.5,30.6,29.69,NW,321,0.0,0.0,73,0.00,,OVC,0.00,VWS V14.00,2013-03-05 15:46:00,
2013-03-05 07:51:00,38.5,30.6,29.69,SSW,196,3.6,4.0,73,0.00,,OVC,0.00,VWS V14.00,2013-03-05 15:51:00,
2013-03-05 07:56:00,38.7,31.1,29.69,South,189,0.0,0.0,74,0.00,,OVC,0.00,VWS V14.00,2013-03-05 15:56:00,
2013-03-05 08:01:00,38.7,31.1,29.69,ENE,58,0.0,0.0,74,0.00,,OVC,0.00,VWS V14.00,2013-03-05 16:01:00,
2013-03-05 08:06:00,38.7,31.1,29.66,ENE,58,0.0,0.0,74,0.00,,OVC,0.00,VWS V14.00,2013-03-05 16:06:00,
2013-03-05 08:11:00,38.8,31.3,29.66,ENE,58,0.0,0.0,74,0.00,,OVC,0.00,VWS V14.00,2013-03-05 16:11:00,
2013-03-05 08:16:00,39.0,31.8,29.66,SSE,166,0.0,0.0,75,0.00,,OVC,0.00,VWS V14.00,2013-03-05 16:16:00,
2013-03-05 08:21:00,39.2,31.6,29.69,NE,54,0.0,0.0,74,0.00,,OVC,0.00,VWS V14.00,2013-03-05 16:21:00,
2013-03-05 08:26:00,39.4,32.1,29.69,North,2,0.0,0.0,75,0.00,,OVC,0.00,VWS V14.00,2013-03-05 16:26:00,
2013-03-05 08:31:00,39.2,32.0,29.69,North,0,0.0,0.0,75,0.00,,OVC,0.00,VWS V14.00,2013-03-05 16:31:00,
2013-03-05 08:36:00,39.2,32.0,29.69,WNW,295,4.0,5.8,75,0.00,,OVC,0.00,VWS V14.00,2013-03-05 16:36:00,
2013-03-05 08:41:00,38.8,31.9,29.69,NE,42,0.0,0.0,76,0.00,,OVC,0.00,VWS V14.00,2013-03-05 16:41:00,
2013-03-05 08:46:00,38.8,31.9,29.69,ENE,67,0.0,0.0,76,0.00,,OVC,0.00,VWS V14.00,2013-03-05 16:46:00,
2013-03-05 08:51:00,39.2,32.3,29.69,NW,305,3.1,5.8,76,0.00,,OVC,0.00,VWS V14.00,2013-03-05 16:51:00,
2013-03-05 08:56:00,39.0,32.1,29.69,North,353,0.0,0.0,76,0.00,,OVC,0.00,VWS V14.00,2013-03-05 16:56:00,
2013-03-05 09:01:00,39.2,32.3,29.69,North,353,0.0,2.2,76,0.00,,OVC,0.00,VWS V14.00,2013-03-05 17:01:00,
2013-03-05 09:06:00,39.4,32.5,29.69,North,8,0.0,0.0,76,0.00,,OVC,0.00,VWS V14.00,2013-03-05 17:06:00,
2013-03-05 09:11:00,39.6,32.6,29.69,North,7,0.0,0.0,76,0.00,,OVC,0.00,VWS V14.00,2013-03-05 17:11:00,
2013-03-05 09:16:00,39.9,33.0,29.69,SW,218,0.0,4.0,76,0.00,,OVC,0.00,VWS V14.00,2013-03-05 17:16:00,
2013-03-05 09:21:00,40.3,33.3,29.69,WSW,245,3.6,3.6,76,0.00,,OVC,0.00,VWS V14.00,2013-03-05 17:21:00,
2013-03-05 09:26:00,40.3,33.3,29.69,WSW,237,0.0,0.0,76,0.00,,OVC,0.00,VWS V14.00,2013-03-05 17:26:00,
2013-03-05 09:31:00,40.6,33.7,29.69,WSW,237,0.0,0.0,76,0.00,,OVC,0.00,VWS V14.00,2013-03-05 17:31:00,
2013-03-05 09:36:00,40.6,33.7,29.69,WNW,299,2.2,2.7,76,0.00,,OVC,0.00,VWS V14.00,2013-03-05 17:36:00,
2013-03-05 09:41:00,41.0,34.0,29.69,WSW,247,0.0,0.0,76,0.00,,OVC,0.00,VWS V14.00,2013-03-05 17:41:00,
2013-03-05 09:46:00,41.0,34.0,29.69,North,5,0.0,0.0,76,0.00,,OVC,0.00,VWS V14.00,2013-03-05 17:46:00,
2013-03-05 09:51:00,41.0,33.7,29.69,NNE,32,0.0,0.0,75,0.00,,OVC,0.00,VWS V14.00,2013-03-05 17:51:00,
2013-03-05 09:56:00,41.9,34.9,29.69,ENE,66,0.0,0.0,76,0.00,,OVC,0.00,VWS V14.00,2013-03-05 17:56:00,
2013-03-05 10:01:00,42.6,35.3,29.69,ENE,66,0.0,0.0,75,0.00,,OVC,0.00,VWS V14.00,2013-03-05 18:01:00,
2013-03-05 10:06:00,43.7,36.3,29.69,WSW,237,2.2,2.2,75,0.00,,OVC,0.00,VWS V14.00,2013-03-05 18:06:00,
2013-03-05 10:11:00,44.2,37.2,29.69,WSW,254,0.0,3.6,76,0.00,,OVC,0.00,VWS V14.00,2013-03-05 18:11:00,
2013-03-05 10:16:00,44.6,37.2,29.69,SW,227,0.0,0.0,75,0.00,,OVC,0.00,VWS V14.00,2013-03-05 18:16:00,
2013-03-05 10:21:00,44.8,37.3,29.69,WSW,241,0.0,3.6,75,0.00,,OVC,0.00,VWS V14.00,2013-03-05 18:21:00,
2013-03-05 10:26:00,44.6,36.8,29.69,North,357,2.2,4.0,74,0.00,,OVC,0.00,VWS V14.00,2013-03-05 18:26:00,
2013-03-05 10:31:00,45.0,37.2,29.69,NW,318,0.0,4.0,74,0.00,,OVC,0.00,VWS V14.00,2013-03-05 18:31:00,
2013-03-05 10:36:00,45.3,37.2,29.69,WNW,286,0.0,3.6,73,0.00,,OVC,0.00,VWS V14.00,2013-03-05 18:36:00,
2013-03-05 10:41:00,46.0,37.9,29.69,West,274,3.6,3.6,73,0.00,,OVC,0.00,VWS V14.00,2013-03-05 18:41:00,
2013-03-05 10:46:00,46.4,37.9,29.69,WSW,240,3.1,5.4,72,0.00,,OVC,0.00,VWS V14.00,2013-03-05 18:46:00,
2013-03-05 10:51:00,46.8,38.2,29.69,South,169,0.0,4.0,72,0.00,,OVC,0.00,VWS V14.00,2013-03-05 18:51:00,
2013-03-05 10:56:00,47.3,38.0,29.69,NE,47,2.7,5.4,70,0.00,,OVC,0.00,VWS V14.00,2013-03-05 18:56:00,
2013-03-05 11:01:00,46.8,37.1,29.69,SSE,166,0.0,0.0,69,0.00,,OVC,0.00,VWS V14.00,2013-03-05 19:01:00,
2013-03-05 11:06:00,47.1,37.1,29.66,ENE,77,0.0,2.2,68,0.00,,OVC,0.00,VWS V14.00,2013-03-05 19:06:00,
2013-03-05 11:11:00,47.7,37.6,29.66,WNW,286,3.6,3.6,68,0.00,,OVC,0.00,VWS V14.00,2013-03-05 19:11:00,
2013-03-05 11:16:00,48.4,37.6,29.66,NNW,340,0.0,0.0,66,0.00,,OVC,0.00,VWS V14.00,2013-03-05 19:16:00,
2013-03-05 11:21:00,48.6,37.3,29.66,NNW,327,3.1,4.0,65,0.00,,OVC,0.00,VWS V14.00,2013-03-05 19:21:00,
2013-03-05 11:26:00,48.0,36.4,29.66,NNE,22,0.0,2.7,64,0.00,,OVC,0.00,VWS V14.00,2013-03-05 19:26:00,
2013-03-05 11:31:00,48.0,36.0,29.66,North,357,2.2,2.2,63,0.00,,OVC,0.00,VWS V14.00,2013-03-05 19:31:00,
2013-03-05 11:36:00,48.6,36.5,29.66,NNW,331,3.1,3.6,63,0.00,,OVC,0.00,VWS V14.00,2013-03-05 19:36:00,
2013-03-05 11:41:00,49.1,37.1,29.66,WNW,287,0.0,4.0,63,0.00,,OVC,0.00,VWS V14.00,2013-03-05 19:41:00,
2013-03-05 11:46:00,49.3,36.8,29.66,West,280,0.0,4.0,62,0.00,,OVC,0.00,VWS V14.00,2013-03-05 19:46:00,
2013-03-05 11:51:00,49.6,37.2,29.66,NW,315,2.2,2.2,62,0.00,,OVC,0.00,VWS V14.00,2013-03-05 19:51:00,
2013-03-05 11:56:00,49.5,36.6,29.66,WNW,283,2.7,4.0,61,0.00,,OVC,0.00,VWS V14.00,2013-03-05 19:56:00,
2013-03-05 12:01:00,49.8,36.9,29.66,NE,41,0.0,2.7,61,0.00,,OVC,0.00,VWS V14.00,2013-03-05 20:01:00,
2013-03-05 12:06:00,49.8,36.5,29.66,WSW,242,0.0,0.0,60,0.00,,OVC,0.00,VWS V14.00,2013-03-05 20:06:00,
2013-03-05 12:11:00,50.2,36.4,29.66,NNW,340,2.2,3.6,59,0.00,,OVC,0.00,VWS V14.00,2013-03-05 20:11:00,
2013-03-05 12:16:00,50.2,36.0,29.66,NW,308,0.0,2.2,58,0.00,,OVC,0.00,VWS V14.00,2013-03-05 20:16:00,
2013-03-05 12:21:00,50.5,35.9,29.66,WNW,296,3.6,5.4,57,0.00,,OVC,0.00,VWS V14.00,2013-03-05 20:21:00,
2013-03-05 12:26:00,50.2,34.7,29.66,NW,305,0.0,3.1,55,0.00,,OVC,0.00,VWS V14.00,2013-03-05 20:26:00,
2013-03-05 12:31:00,50.7,35.6,29.66,North,353,0.0,2.7,56,0.00,,OVC,0.00,VWS V14.00,2013-03-05 20:31:00,
2013-03-05 12:36:00,50.9,35.3,29.66,NW,319,4.0,4.9,55,0.00,,OVC,0.00,VWS V14.00,2013-03-05 20:36:00,
2013-03-05 12:41:00,51.3,35.7,29.66,NW,322,4.0,4.0,55,0.00,,OVC,0.00,VWS V14.00,2013-03-05 20:41:00,
2013-03-05 12:46:00,51.4,35.8,29.66,North,6,3.6,3.6,55,0.00,,OVC,0.00,VWS V14.00,2013-03-05 20:46:00,
2013-03-05 12:51:00,50.5,34.1,29.63,North,1,0.0,2.7,53,0.00,,OVC,0.00,VWS V14.00,2013-03-05 20:51:00,
2013-03-05 12:56:00,50.9,34.4,29.63,NW,304,3.1,3.6,53,0.00,,OVC,0.00,VWS V14.00,2013-03-05 20:56:00,
2013-03-05 13:01:00,51.1,34.6,29.63,WNW,284,2.7,5.8,53,0.00,,OVC,0.00,VWS V14.00,2013-03-05 21:01:00,
2013-03-05 13:06:00,50.9,33.9,29.63,NNW,348,0.0,2.7,52,0.00,,OVC,0.00,VWS V14.00,2013-03-05 21:06:00,
2013-03-05 13:11:00,51.1,34.6,29.63,NW,307,4.0,5.8,53,0.00,,OVC,0.00,VWS V14.00,2013-03-05 21:11:00,
2013-03-05 13:16:00,51.1,34.6,29.63,NW,305,3.6,4.9,53,0.00,,OVC,0.00,VWS V14.00,2013-03-05 21:16:00,
2013-03-05 13:21:00,51.1,34.1,29.63,NNE,24,2.7,4.0,52,0.00,,OVC,0.00,VWS V14.00,2013-03-05 21:21:00,
2013-03-05 13:26:00,51.3,34.2,29.63,North,353,3.6,3.6,52,0.00,,OVC,0.00,VWS V14.00,2013-03-05 21:26:00,
2013-03-05 13:31:00,51.3,34.2,29.63,NW,305,2.7,4.0,52,0.00,,OVC,0.00,VWS V14.00,2013-03-05 21:31:00,
2013-03-05 13:36:00,51.3,33.8,29.63,WNW,300,0.0,0.0,51,0.00,,OVC,0.00,VWS V14.00,2013-03-05 21:36:00,
2013-03-05 13:41:00,51.4,33.9,29.63,ENE,57,0.0,2.2,51,0.00,,OVC,0.00,VWS V14.00,2013-03-05 21:41:00,
2013-03-05 13:46:00,51.3,33.8,29.63,WNW,297,4.0,5.4,51,0.00,,OVC,0.00,VWS V14.00,2013-03-05 21:46:00,
2013-03-05 13:51:00,51.4,33.4,29.63,North,353,0.0,0.0,50,0.00,,OVC,0.00,VWS V14.00,2013-03-05 21:51:00,
2013-03-05 13:56:00,51.3,33.3,29.63,NNW,329,0.0,0.0,50,0.00,,OVC,0.00,VWS V14.00,2013-03-05 21:56:00,
2013-03-05 14:01:00,51.4,33.4,29.63,NW,311,3.6,4.0,50,0.00,,OVC,0.00,VWS V14.00,2013-03-05 22:01:00,
2013-03-05 14:06:00,51.4,33.4,29.63,NW,307,0.0,2.2,50,0.00,,OVC,0.00,VWS V14.00,2013-03-05 22:06:00,
2013-03-05 14:11:00,51.4,33.4,29.63,NW,307,0.0,0.0,50,0.00,,OVC,0.00,VWS V14.00,2013-03-05 22:11:00,
2013-03-05 14:16:00,51.3,32.8,29.63,NW,307,0.0,0.0,49,0.00,,OVC,0.00,VWS V14.00,2013-03-05 22:16:00,
2013-03-05 14:21:00,51.4,32.9,29.63,NW,304,0.0,0.0,49,0.00,,OVC,0.00,VWS V14.00,2013-03-05 22:21:00,
2013-03-05 14:26:00,51.4,32.9,29.63,NW,305,0.0,0.0,49,0.00,,OVC,0.00,VWS V14.00,2013-03-05 22:26:00,
2013-03-05 14:31:00,51.4,32.9,29.63,NW,304,0.0,0.0,49,0.00,,OVC,0.00,VWS V14.00,2013-03-05 22:31:00,
2013-03-05 14:36:00,51.4,32.9,29.63,NW,305,0.0,0.0,49,0.00,,OVC,0.00,VWS V14.00,2013-03-05 22:36:00,
2013-03-05 14:41:00,51.3,32.8,29.63,NW,305,0.0,0.0,49,0.00,,OVC,0.00,VWS V14.00,2013-03-05 22:41:00,
2013-03-05 14:46:00,51.3,32.8,29.63,NW,305,0.0,0.0,49,0.00,,OVC,0.00,VWS V14.00,2013-03-05 22:46:00,
2013-03-05 14:51:00,51.1,32.6,29.63,SSW,195,0.0,0.0,49,0.00,,OVC,0.00,VWS V14.00,2013-03-05 22:51:00,
2013-03-05 14:56:00,50.9,32.4,29.63,ESE,105,4.9,4.9,49,0.00,,OVC,0.00,VWS V14.00,2013-03-05 22:56:00,
2013-03-05 15:01:00,50.5,31.6,29.63,South,178,0.0,0.0,48,0.00,,OVC,0.00,VWS V14.00,2013-03-05 23:01:00,
2013-03-05 15:06:00,50.2,31.3,29.63,SSW,208,4.9,4.9,48,0.00,,OVC,0.00,VWS V14.00,2013-03-05 23:06:00,
2013-03-05 15:11:00,49.8,30.9,29.63,WSW,257,4.9,4.9,48,0.00,,OVC,0.00,VWS V14.00,2013-03-05 23:11:00,
2013-03-05 15:16:00,49.5,31.1,29.63,South,169,4.0,8.1,49,0.00,,OVC,0.00,VWS V14.00,2013-03-05 23:16:00,
2013-03-05 15:21:00,49.3,31.0,29.63,SSE,156,6.7,8.3,49,0.00,,OVC,0.00,VWS V14.00,2013-03-05 23:21:00,
2013-03-05 15:26:00,49.1,30.8,29.63,SE,139,10.1,13.2,49,0.00,,OVC,0.00,VWS V14.00,2013-03-05 23:26:00,
2013-03-05 15:31:00,49.1,30.8,29.63,SSE,162,13.2,13.2,49,0.00,,OVC,0.00,VWS V14.00,2013-03-05 23:31:00,
2013-03-05 15:36:00,48.9,30.6,29.63,South,188,8.7,10.5,49,0.00,,OVC,0.00,VWS V14.00,2013-03-05 23:36:00,
2013-03-05 15:41:00,48.9,30.6,29.63,ESE,122,12.3,15.0,49,0.00,,OVC,0.00,VWS V14.00,2013-03-05 23:41:00,
2013-03-05 15:46:00,48.7,30.5,29.63,SSE,159,5.4,6.3,49,0.00,,OVC,0.00,VWS V14.00,2013-03-05 23:46:00,
2013-03-05 15:51:00,48.7,31.0,29.63,SSW,207,4.0,6.7,50,0.00,,OVC,0.00,VWS V14.00,2013-03-05 23:51:00,
2013-03-05 15:56:00,48.6,30.8,29.63,SSE,156,12.3,12.8,50,0.00,,OVC,0.00,VWS V14.00,2013-03-05 23:56:00,
2013-03-05 16:01:00,48.2,30.5,29.63,SE,136,5.4,15.4,50,0.00,,OVC,0.00,VWS V14.00,2013-03-06 00:01:00,
2013-03-05 16:06:00,47.8,30.6,29.60,ENE,60,13.2,15.4,51,0.00,,OVC,0.00,VWS V14.00,2013-03-06 00:06:00,
2013-03-05 16:11:00,47.5,30.8,29.60,SE,136,8.3,17.4,52,0.00,,OVC,0.00,VWS V14.00,2013-03-06 00:11:00,
2013-03-05 16:16:00,47.3,31.0,29.60,SE,146,15.0,16.3,53,0.00,,OVC,0.00,VWS V14.00,2013-03-06 00:16:00,
2013-03-05 16:21:00,47.1,30.9,29.60,SSE,163,13.2,13.2,53,0.00,,OVC,0.00,VWS V14.00,2013-03-06 00:21:00,
2013-03-05 16:26:00,47.1,30.9,29.60,SSE,148,12.8,15.0,53,0.00,,OVC,0.00,VWS V14.00,2013-03-06 00:26:00,
2013-03-05 16:31:00,47.1,30.9,29.60,SE,141,15.4,17.4,53,0.00,,OVC,0.00,VWS V14.00,2013-03-06 00:31:00,
2013-03-05 16:36:00,47.1,31.4,29.60,SSW,207,8.7,13.6,54,0.00,,OVC,0.00,VWS V14.00,2013-03-06 00:36:00,
2013-03-05 16:41:00,47.1,30.9,29.60,SE,140,15.4,15.4,53,0.00,,OVC,0.00,VWS V14.00,2013-03-06 00:41:00,
2013-03-05 16:46:00,47.1,30.9,29.60,SE,146,10.5,10.5,53,0.00,,OVC,0.00,VWS V14.00,2013-03-06 00:46:00,
2013-03-05 16:51:00,47.1,31.4,29.60,SSE,161,8.3,10.5,54,0.00,,OVC,0.00,VWS V14.00,2013-03-06 00:51:00,
2013-03-05 16:56:00,46.9,31.2,29.60,SE,125,10.5,10.5,54,0.00,,OVC,0.00,VWS V14.00,2013-03-06 00:56:00,
2013-03-05 17:01:00,46.9,31.2,29.60,SSE,164,3.6,7.6,54,0.00,,OVC,0.00,VWS V14.00,2013-03-06 01:01:00,
2013-03-05 17:06:00,46.8,31.5,29.60,ESE,119,17.4,17.4,55,0.00,,OVC,0.00,VWS V14.00,2013-03-06 01:06:00,
2013-03-05 17:11:00,46.6,31.3,29.60,SE,141,16.3,16.3,55,0.00,,OVC,0.00,VWS V14.00,2013-03-06 01:11:00,
2013-03-05 17:16:00,46.6,31.3,29.60,SSE,152,8.3,8.7,55,0.00,,OVC,0.00,VWS V14.00,2013-03-06 01:16:00,
2013-03-05 17:21:00,46.4,31.1,29.60,SSW,202,4.9,11.9,55,0.00,,OVC,0.00,VWS V14.00,2013-03-06 01:21:00,
2013-03-05 17:26:00,46.4,31.6,29.60,SE,138,5.8,10.1,56,0.00,,OVC,0.00,VWS V14.00,2013-03-06 01:26:00,
2013-03-05 17:31:00,46.2,31.8,29.60,ESE,118,11.4,11.4,57,0.00,,OVC,0.00,VWS V14.00,2013-03-06 01:31:00,
2013-03-05 17:36:00,46.0,31.7,29.57,South,174,5.8,5.8,57,0.00,,OVC,0.00,VWS V14.00,2013-03-06 01:36:00,
2013-03-05 17:41:00,46.0,32.1,29.57,SSE,148,5.8,8.3,58,0.00,,OVC,0.00,VWS V14.00,2013-03-06 01:41:00,
2013-03-05 17:46:00,45.9,32.4,29.57,South,181,5.4,17.4,59,0.00,,OVC,0.00,VWS V14.00,2013-03-06 01:46:00,
2013-03-05 17:51:00,45.9,32.8,29.57,SW,222,5.8,12.3,60,0.00,,OVC,0.00,VWS V14.00,2013-03-06 01:51:00,
2013-03-05 17:56:00,45.7,32.2,29.57,SE,144,7.6,10.5,59,0.00,,OVC,0.00,VWS V14.00,2013-03-06 01:56:00,
2013-03-05 18:01:00,45.9,31.9,29.57,SSE,151,7.6,10.1,58,0.00,,OVC,0.00,VWS V14.00,2013-03-06 02:01:00,
2013-03-05 18:06:00,45.9,31.9,29.57,SE,126,8.3,9.6,58,0.00,,OVC,0.00,VWS V14.00,2013-03-06 02:06:00,
2013-03-05 18:11:00,45.9,31.5,29.57,SE,125,15.0,18.3,57,0.00,,OVC,0.00,VWS V14.00,2013-03-06 02:11:00,
2013-03-05 18:16:00,45.9,31.9,29.57,SSE,148,5.8,14.5,58,0.00,,OVC,0.00,VWS V14.00,2013-03-06 02:16:00,
2013-03-05 18:21:00,45.9,31.9,29.57,SSW,197,8.3,17.0,58,0.00,,OVC,0.00,VWS V14.00,2013-03-06 02:21:00,
2013-03-05 18:26:00,45.7,31.8,29.57,SSW,192,10.1,10.1,58,0.00,,OVC,0.00,VWS V14.00,2013-03-06 02:26:00,
2013-03-05 18:31:00,45.5,32.0,29.57,SE,142,7.6,8.1,59,0.00,,OVC,0.00,VWS V14.00,2013-03-06 02:31:00,
2013-03-05 18:36:00,45.5,32.0,29.57,SE,144,8.1,8.1,59,0.00,,OVC,0.00,VWS V14.00,2013-03-06 02:36:00,
2013-03-05 18:41:00,45.3,31.9,29.54,South,184,10.1,11.4,59,0.00,,OVC,0.00,VWS V14.00,2013-03-06 02:41:00,
2013-03-05 18:46:00,45.3,31.9,29.54,SSW,203,6.3,8.1,59,0.00,,OVC,0.00,VWS V14.00,2013-03-06 02:46:00,
2013-03-05 18:51:00,45.3,31.9,29.54,South,186,11.0,11.4,59,0.00,,OVC,0.00,VWS V14.00,2013-03-06 02:51:00,
2013-03-05 18:56:00,45.3,31.9,29.54,SSE,159,4.9,8.7,59,0.00,,OVC,0.00,VWS V14.00,2013-03-06 02:56:00,
2013-03-05 19:01:00,45.3,31.9,29.54,SSW,198,7.6,9.6,59,0.00,,OVC,0.00,VWS V14.00,2013-03-06 03:01:00,
2013-03-05 19:06:00,45.3,32.3,29.54,SSE,162,8.7,8.7,60,0.00,,OVC,0.00,VWS V14.00,2013-03-06 03:06:00,
2013-03-05 19:11:00,45.3,32.3,29.54,South,172,5.4,6.3,60,0.00,,OVC,0.00,VWS V14.00,2013-03-06 03:11:00,
2013-03-05 19:16:00,45.3,32.3,29.54,South,184,4.0,10.1,60,0.00,,OVC,0.00,VWS V14.00,2013-03-06 03:16:00,
2013-03-05 19:21:00,45.5,32.4,29.54,SE,128,5.8,13.2,60,0.00,,OVC,0.00,VWS V14.00,2013-03-06 03:21:00,
2013-03-05 19:26:00,45.5,32.4,29.54,SSW,199,5.4,8.3,60,0.00,,OVC,0.00,VWS V14.00,2013-03-06 03:26:00,
2013-03-05 19:31:00,45.5,32.0,29.54,South,169,12.8,12.8,59,0.00,,OVC,0.00,VWS V14.00,2013-03-06 03:31:00,
2013-03-05 19:36:00,45.7,32.2,29.52,ESE,121,8.3,8.3,59,0.00,,OVC,0.00,VWS V14.00,2013-03-06 03:36:00,
2013-03-05 19:41:00,45.7,32.2,29.52,SE,125,8.7,9.6,59,0.00,,OVC,0.00,VWS V14.00,2013-03-06 03:41:00,
2013-03-05 19:46:00,45.9,31.9,29.52,SSE,149,5.8,17.4,58,0.00,,OVC,0.00,VWS V14.00,2013-03-06 03:46:00,
2013-03-05 19:51:00,46.0,32.1,29.52,SSE,154,5.4,11.0,58,0.00,,OVC,0.00,VWS V14.00,2013-03-06 03:51:00,
2013-03-05 19:56:00,46.2,32.3,29.52,SSE,163,12.8,12.8,58,0.00,,OVC,0.00,VWS V14.00,2013-03-06 03:56:00,
2013-03-05 20:01:00,46.2,31.8,29.52,ENE,63,8.3,12.8,57,0.00,,OVC,0.00,VWS V14.00,2013-03-06 04:01:00,
2013-03-05 20:06:00,46.4,32.0,29.52,East,93,5.8,11.0,57,0.00,,OVC,0.00,VWS V14.00,2013-03-06 04:06:00,
2013-03-05 20:11:00,46.4,31.6,29.52,ESE,123,11.9,16.8,56,0.00,,OVC,0.00,VWS V14.00,2013-03-06 04:11:00,
2013-03-05 20:16:00,46.4,31.6,29.52,SSE,164,11.0,11.0,56,0.00,,OVC,0.00,VWS V14.00,2013-03-06 04:16:00,
2013-03-05 20:21:00,46.4,31.6,29.52,SSE,162,7.6,17.0,56,0.00,,OVC,0.00,VWS V14.00,2013-03-06 04:21:00,
2013-03-05 20:26:00,46.4,32.0,29.52,SE,145,10.5,14.1,57,0.00,,OVC,0.00,VWS V14.00,2013-03-06 04:26:00,
2013-03-05 20:31:00,46.6,31.7,29.52,SE,145,8.7,16.3,56,0.00,,OVC,0.00,VWS V14.00,2013-03-06 04:31:00,
2013-03-05 20:36:00,46.6,31.7,29.52,SE,140,10.5,17.4,56,0.00,,OVC,0.00,VWS V14.00,2013-03-06 04:36:00,
2013-03-05 20:41:00,46.6,31.7,29.52,ESE,111,12.3,16.8,56,0.00,,OVC,0.00,VWS V14.00,2013-03-06 04:41:00,
2013-03-05 20:46:00,46.6,31.7,29.52,ESE,106,17.4,18.3,56,0.00,,OVC,0.00,VWS V14.00,2013-03-06 04:46:00,
2013-03-05 20:51:00,46.6,31.7,29.49,SSE,159,13.6,16.3,56,0.00,,OVC,0.00,VWS V14.00,2013-03-06 04:51:00,
2013-03-05 20:56:00,46.4,31.6,29.49,SE,137,12.8,15.9,56,0.00,,OVC,0.00,VWS V14.00,2013-03-06 04:56:00,
2013-03-05 21:00:00,46.4,32.0,29.49,South,177,8.1,10.1,57,0.00,,OVC,0.00,VWS V14.00,2013-03-06 05:00:00,
2013-03-05 21:05:00,46.4,31.6,29.49,SSE,160,8.1,13.6,56,0.00,,OVC,0.00,VWS V14.00,2013-03-06 05:05:00,
2013-03-05 21:10:00,46.4,31.6,29.49,SSW,207,6.3,11.9,56,0.00,,OVC,0.00,VWS V14.00,2013-03-06 05:10:00,
2013-03-05 21:15:00,46.4,32.0,29.49,SSE,148,11.0,14.5,57,0.00,,OVC,0.00,VWS V14.00,2013-03-06 05:15:00,
2013-03-05 21:20:00,46.4,32.0,29.49,South,191,8.1,17.0,57,0.00,,OVC,0.00,VWS V14.00,2013-03-06 05:20:00,
2013-03-05 21:25:00,46.2,32.3,29.52,SSE,165,11.0,13.2,58,0.00,,OVC,0.00,VWS V14.00,2013-03-06 05:25:00,
2013-03-05 21:30:00,46.2,32.3,29.52,SSE,157,10.5,10.5,58,0.00,,OVC,0.00,VWS V14.00,2013-03-06 05:30:00,
2013-03-05 21:35:00,46.2,32.3,29.52,SE,130,7.6,12.8,58,0.00,,OVC,0.00,VWS V14.00,2013-03-06 05:35:00,
2013-03-05 21:40:00,46.2,31.8,29.49,ESE,102,21.9,21.9,57,0.00,,OVC,0.00,VWS V14.00,2013-03-06 05:40:00,
2013-03-05 21:45:00,46.2,31.8,29.49,WSW,239,7.6,10.1,57,0.00,,OVC,0.00,VWS V14.00,2013-03-06 05:45:00,
2013-03-05 21:50:00,46.0,31.7,29.49,SE,138,8.3,12.8,57,0.00,,OVC,0.00,VWS V14.00,2013-03-06 05:50:00,
2013-03-05 21:55:00,45.9,31.9,29.49,SSE,167,11.0,12.3,58,0.00,,OVC,0.00,VWS V14.00,2013-03-06 05:55:00,
2013-03-05 22:00:00,45.9,31.9,29.49,ENE,72,8.7,15.0,58,0.00,,OVC,0.00,VWS V14.00,2013-03-06 06:00:00,
2013-03-05 22:05:00,45.7,31.8,29.49,ESE,123,13.2,17.9,58,0.00,,OVC,0.00,VWS V14.00,2013-03-06 06:05:00,
2013-03-05 22:10:00,45.7,32.2,29.49,SE,124,15.4,19.7,59,0.00,,OVC,0.00,VWS V14.00,2013-03-06 06:10:00,
2013-03-05 22:15:00,45.5,32.0,29.49,South,180,7.6,15.9,59,0.00,,OVC,0.00,VWS V14.00,2013-03-06 06:15:00,
2013-03-05 22:20:00,45.5,32.0,29.49,SSW,192,8.1,8.3,59,0.00,,OVC,0.00,VWS V14.00,2013-03-06 06:20:00,
2013-03-05 22:25:00,45.7,31.8,29.49,SE,143,17.9,17.9,58,0.00,,OVC,0.00,VWS V14.00,2013-03-06 06:25:00,
2013-03-05 22:30:00,45.7,31.8,29.49,SE,146,11.0,11.4,58,0.00,,OVC,0.00,VWS V14.00,2013-03-06 06:30:00,
2013-03-05 22:35:00,45.5,31.6,29.49,SE,135,23.7,23.7,58,0.00,,OVC,0.00,VWS V14.00,2013-03-06 06:35:00,
2013-03-05 22:40:00,45.3,31.9,29.49,ENE,73,16.3,21.0,59,0.00,,OVC,0.00,VWS V14.00,2013-03-06 06:40:00,
2013-03-05 22:45:00,45.3,31.9,29.49,South,173,8.1,18.8,59,0.00,,OVC,0.00,VWS V14.00,2013-03-06 06:45:00,
2013-03-05 22:50:00,45.1,31.7,29.49,SSE,147,13.6,13.6,59,0.00,,OVC,0.00,VWS V14.00,2013-03-06 06:50:00,
2013-03-05 22:55:00,45.1,31.7,29.46,SE,142,13.2,13.2,59,0.00,,OVC,0.00,VWS V14.00,2013-03-06 06:55:00,
2013-03-05 23:00:00,45.1,31.7,29.46,SE,133,12.8,15.4,59,0.00,,OVC,0.00,VWS V14.00,2013-03-06 07:00:00,
2013-03-05 23:05:00,45.1,31.7,29.46,SE,143,10.5,15.0,59,0.00,,OVC,0.00,VWS V14.00,2013-03-06 07:05:00,
2013-03-05 23:10:00,45.1,31.7,29.46,SE,129,13.6,21.5,59,0.00,,OVC,0.00,VWS V14.00,2013-03-06 07:10:00,
2013-03-05 23:15:00,45.1,31.7,29.46,South,176,11.0,16.8,59,0.00,,OVC,0.00,VWS V14.00,2013-03-06 07:15:00,
2013-03-05 23:20:00,45.1,31.7,29.46,SE,129,10.5,15.4,59,0.00,,OVC,0.00,VWS V14.00,2013-03-06 07:20:00,
2013-03-05 23:25:00,45.1,31.7,29.46,SE,129,15.0,16.8,59,0.00,,OVC,0.00,VWS V14.00,2013-03-06 07:25:00,
2013-03-05 23:30:00,45.0,31.5,29.46,SSE,168,7.2,22.4,59,0.00,,OVC,0.00,VWS V14.00,2013-03-06 07:30:00,
2013-03-05 23:35:00,44.8,31.8,29.46,SE,144,13.6,26.2,60,0.00,,OVC,0.00,VWS V14.00,2013-03-06 07:35:00,
2013-03-05 23:40:00,44.4,31.8,29.46,SE,146,21.5,27.5,61,0.00,,OVC,0.00,VWS V14.00,2013-03-06 07:40:00,
2013-03-05 23:45:00,44.2,32.1,29.46,SSE,147,26.6,26.6,62,0.00,,OVC,0.00,VWS V14.00,2013-03-06 07:45:00,
2013-03-05 23:50:00,43.9,32.5,29.46,SE,140,19.7,19.7,64,0.00,,OVC,0.00,VWS V14.00,2013-03-06 07:50:00,
2013-03-05 23:55:00,43.7,32.3,29.46,SSE,155,15.4,15.4,64,0.00,,OVC,0.00,VWS V14.00,2013-03-06 07:55:00,